Time,TemperatureF,DewpointF,PressureIn,WindDirection,WindDirectionDegrees,WindSpeedMPH,WindSpeedGustMPH,Humidity,HourlyPrecipIn,Conditions,Clouds,dailyrainin,SoftwareType,DateUTC
2013-07-10 00:00:00,69.3,45.2,29.79,SE,141,3.0,9.0,42,0.00,,SCT120,0.00,VWS V14.01,2013-07-10 06:00:00,
2013-07-10 00:04:00,69.6,44.9,29.78,SE,124,7.0,10.0,41,0.00,,CLR,0.00,VWS V14.01,2013-07-10 06:04:00,
2013-07-10 00:09:00,69.8,45.1,29.78,SE,127,5.0,11.0,41,0.00,,CLR,0.00,VWS V14.01,2013-07-10 06:09:00,
2013-07-10 00:14:00,69.8,45.1,29.78,East,85,5.0,11.0,41,0.00,,CLR,0.00,VWS V14.01,2013-07-10 06:14:00,
2013-07-10 00:19:00,69.7,45.0,29.78,ESE,111,5.0,11.0,41,0.00,,CLR,0.00,VWS V14.01,2013-07-10 06:19:00,
2013-07-10 00:24:00,69.7,45.0,29.78,SE,124,2.0,11.0,41,0.00,,CLR,0.00,VWS V14.01,2013-07-10 06:24:00,
2013-07-10 00:29:00,69.9,45.2,29.78,East,99,6.0,11.0,41,0.00,,CLR,0.00,VWS V14.01,2013-07-10 06:29:00,
2013-07-10 00:30:00,69.9,45.2,29.78,SE,143,8.0,11.0,41,0.00,,SCT120,0.00,VWS V14.01,2013-07-10 06:30:00,
2013-07-10 00:34:00,70.0,44.6,29.77,East,100,5.0,9.0,40,0.00,,CLR,0.00,VWS V14.01,2013-07-10 06:34:00,
2013-07-10 00:39:00,69.7,45.6,29.77,ENE,70,4.0,9.0,42,0.00,,CLR,0.00,VWS V14.01,2013-07-10 06:39:00,
2013-07-10 00:44:00,68.3,46.2,29.78,NNE,12,0.0,9.0,45,0.00,,CLR,0.00,VWS V14.01,2013-07-10 06:44:00,
2013-07-10 00:49:00,67.6,46.1,29.78,North,8,0.0,9.0,46,0.00,,CLR,0.00,VWS V14.01,2013-07-10 06:49:00,
2013-07-10 00:54:00,67.3,45.8,29.77,WSW,242,0.0,9.0,46,0.00,,CLR,0.00,VWS V14.01,2013-07-10 06:54:00,
2013-07-10 00:59:00,67.1,46.2,29.77,West,262,4.0,9.0,47,0.00,,CLR,0.00,VWS V14.01,2013-07-10 06:59:00,
2013-07-10 01:00:00,67.0,46.1,29.77,West,277,4.0,9.0,47,0.00,,SCT120,0.00,VWS V14.01,2013-07-10 07:00:00,
2013-07-10 01:04:00,67.1,45.7,29.77,WNW,295,0.0,5.0,46,0.00,,CLR,0.00,VWS V14.01,2013-07-10 07:04:00,
2013-07-10 01:09:00,67.2,45.7,29.77,SE,134,0.0,5.0,46,0.00,,CLR,0.00,VWS V14.01,2013-07-10 07:09:00,
2013-07-10 01:14:00,66.7,45.3,29.78,South,186,1.0,5.0,46,0.00,,CLR,0.00,VWS V14.01,2013-07-10 07:14:00,
2013-07-10 01:19:00,67.0,45.0,29.77,South,188,0.0,5.0,45,0.00,,CLR,0.00,VWS V14.01,2013-07-10 07:19:00,
2013-07-10 01:24:00,67.3,44.7,29.77,SSW,195,0.0,5.0,44,0.00,,CLR,0.00,VWS V14.01,2013-07-10 07:24:00,
2013-07-10 01:29:00,66.6,45.8,29.77,East,98,3.0,7.0,47,0.00,,CLR,0.00,VWS V14.01,2013-07-10 07:29:00,
2013-07-10 01:30:00,66.6,45.2,29.78,ENE,72,4.0,7.0,46,0.00,,SCT120,0.00,VWS V14.01,2013-07-10 07:30:00,
2013-07-10 01:35:00,66.9,45.5,29.77,ENE,72,0.0,5.0,46,0.00,,CLR,0.00,VWS V14.01,2013-07-10 07:35:00,
2013-07-10 01:40:00,67.5,44.8,29.77,NE,51,2.0,8.0,44,0.00,,CLR,0.00,VWS V14.01,2013-07-10 07:40:00,
2013-07-10 01:45:00,67.6,44.9,29.77,SSE,166,1.0,8.0,44,0.00,,CLR,0.00,VWS V14.01,2013-07-10 07:45:00,
2013-07-10 01:50:00,68.1,44.8,29.77,WSW,245,4.0,8.0,43,0.00,,CLR,0.00,VWS V14.01,2013-07-10 07:50:00,
2013-07-10 01:55:00,68.4,45.0,29.77,SW,224,3.0,8.0,43,0.00,,CLR,0.00,VWS V14.01,2013-07-10 07:55:00,
2013-07-10 02:00:00,68.1,45.4,29.77,WNW,293,0.0,8.0,44,0.00,,CLR,0.00,VWS V14.01,2013-07-10 08:00:00,
2013-07-10 02:05:00,66.8,45.9,29.78,ESE,120,2.0,4.0,47,0.00,,CLR,0.00,VWS V14.01,2013-07-10 08:05:00,
2013-07-10 02:10:00,66.2,46.0,29.78,ESE,110,1.0,4.0,48,0.00,,CLR,0.00,VWS V14.01,2013-07-10 08:10:00,
2013-07-10 02:15:00,66.5,45.1,29.78,South,187,0.0,4.0,46,0.00,,CLR,0.00,VWS V14.01,2013-07-10 08:15:00,
2013-07-10 02:20:00,67.7,45.0,29.78,SE,131,2.0,6.0,44,0.00,,CLR,0.00,VWS V14.01,2013-07-10 08:20:00,
2013-07-10 02:25:00,68.7,45.9,29.78,SSE,154,0.0,8.0,44,0.00,,CLR,0.00,VWS V14.01,2013-07-10 08:25:00,
2013-07-10 02:30:00,67.9,45.8,29.78,NNE,27,0.0,0.0,45,0.00,,CLR,0.00,VWS V14.01,2013-07-10 08:30:00,
2013-07-10 02:35:00,66.8,45.4,29.78,West,266,2.0,5.0,46,0.00,,FEW110,0.00,VWS V14.01,2013-07-10 08:35:00,
2013-07-10 02:40:00,67.1,45.7,29.78,SSE,155,0.0,5.0,46,0.00,,FEW110,0.00,VWS V14.01,2013-07-10 08:40:00,
2013-07-10 02:45:00,66.7,45.3,29.78,ESE,113,0.0,5.0,46,0.00,,FEW110,0.00,VWS V14.01,2013-07-10 08:45:00,
2013-07-10 02:50:00,66.7,45.8,29.79,East,81,0.0,5.0,47,0.00,,SCT110,0.00,VWS V14.01,2013-07-10 08:50:00,
2013-07-10 02:55:00,66.4,46.1,29.79,East,96,2.0,5.0,48,0.00,,SCT110,0.00,VWS V14.01,2013-07-10 08:55:00,
2013-07-10 03:00:00,66.0,46.3,29.79,East,82,3.0,4.0,49,0.00,,SCT110,0.00,VWS V14.01,2013-07-10 09:00:00,
2013-07-10 03:05:00,65.8,46.1,29.79,East,82,1.0,4.0,49,0.00,,SCT120,0.00,VWS V14.01,2013-07-10 09:05:00,
2013-07-10 03:11:00,66.2,46.0,29.79,ENE,75,3.0,4.0,48,0.00,,SCT120,0.00,VWS V14.01,2013-07-10 09:11:00,
2013-07-10 03:16:00,66.4,46.1,29.79,ENE,77,3.0,5.0,48,0.00,,SCT120,0.00,VWS V14.01,2013-07-10 09:16:00,
2013-07-10 03:21:00,66.5,45.7,29.79,ENE,74,0.0,5.0,47,0.00,,SCT120,0.00,VWS V14.01,2013-07-10 09:21:00,
2013-07-10 03:26:00,66.3,46.0,29.79,ENE,74,0.0,5.0,48,0.00,,SCT120,0.00,VWS V14.01,2013-07-10 09:26:00,
2013-07-10 03:30:00,66.1,45.9,29.79,ENE,68,1.0,5.0,48,0.00,,SCT120,0.00,VWS V14.01,2013-07-10 09:30:00,
2013-07-10 04:00:00,65.3,46.7,29.79,ENE,68,1.0,5.0,51,0.00,,SCT120,0.00,VWS V14.01,2013-07-10 10:00:00,
2013-07-10 04:30:00,63.7,47.2,29.80,SW,225,1.0,4.0,55,0.00,,SCT120,0.00,VWS V14.01,2013-07-10 10:30:00,
2013-07-10 05:00:00,63.4,46.0,29.81,ENE,68,1.0,4.0,53,0.00,,SCT120,0.00,VWS V14.01,2013-07-10 11:00:00,
2013-07-10 05:30:00,63.2,45.3,29.80,SE,135,0.0,2.0,52,0.00,,SCT120,0.00,VWS V14.01,2013-07-10 11:30:00,
2013-07-10 06:00:00,62.2,45.8,29.81,East,90,1.0,3.0,55,0.00,,SCT120,0.00,VWS V14.01,2013-07-10 12:00:00,
2013-07-10 06:30:00,62.6,45.7,29.82,ESE,112,0.0,2.0,54,0.00,,SCT120,0.00,VWS V14.01,2013-07-10 12:30:00,
2013-07-10 07:00:00,63.0,46.6,29.82,East,90,1.0,5.0,55,0.00,,SCT120,0.00,VWS V14.01,2013-07-10 13:00:00,
2013-07-10 07:30:00,62.3,47.3,29.83,East,90,0.0,1.0,58,0.00,,SCT120,0.00,VWS V14.01,2013-07-10 13:30:00,
2013-07-10 08:00:00,63.2,47.7,29.83,WSW,248,0.0,4.0,57,0.00,,SCT120,0.00,VWS V14.01,2013-07-10 14:00:00,
2013-07-10 08:30:00,65.1,49.0,29.84,ENE,68,1.0,2.0,56,0.00,,SCT120,0.00,VWS V14.01,2013-07-10 14:30:00,
2013-07-10 09:00:00,68.0,49.2,29.84,ENE,68,0.0,3.0,51,0.00,,SCT120,0.00,VWS V14.01,2013-07-10 15:00:00,
2013-07-10 09:30:00,73.6,49.1,29.83,NE,45,0.0,2.0,42,0.00,,SCT120,0.00,VWS V14.01,2013-07-10 15:30:00,
2013-07-10 10:00:00,76.1,48.0,29.82,WNW,292,0.0,3.0,37,0.00,,SCT120,0.00,VWS V14.01,2013-07-10 16:00:00,
2013-07-10 10:30:00,78.0,48.2,29.80,WNW,292,2.0,5.0,35,0.00,,SCT120,0.00,VWS V14.01,2013-07-10 16:30:00,
2013-07-10 11:00:00,81.5,50.5,29.79,NW,315,1.0,7.0,34,0.00,,SCT120,0.00,VWS V14.01,2013-07-10 17:00:00,
2013-07-10 11:30:00,84.7,48.0,29.77,NNW,338,2.0,6.0,28,0.00,,SCT120,0.00,VWS V14.01,2013-07-10 17:30:00,
2013-07-10 12:00:00,84.9,46.2,29.76,NW,315,3.0,11.0,26,0.00,,SCT120,0.00,VWS V14.01,2013-07-10 18:00:00,
2013-07-10 12:30:00,71.8,55.3,29.77,SSW,202,7.0,14.0,56,0.10,,SCT120,0.10,VWS V14.01,2013-07-10 18:30:00,
2013-07-10 13:00:00,68.9,54.9,29.76,SE,135,9.0,20.0,61,0.11,,SCT120,0.11,VWS V14.01,2013-07-10 19:00:00,
2013-07-10 13:30:00,71.4,51.8,29.77,SE,135,7.0,14.0,50,0.11,,SCT120,0.11,VWS V14.01,2013-07-10 19:30:00,
2013-07-10 14:00:00,69.7,53.8,29.76,SE,135,8.0,15.0,57,0.01,,SCT120,0.11,VWS V14.01,2013-07-10 20:00:00,
2013-07-10 14:30:00,78.2,53.2,29.74,ESE,112,9.0,17.0,42,0.00,,SCT120,0.11,VWS V14.01,2013-07-10 20:30:00,
2013-07-10 15:00:00,82.6,48.1,29.73,SE,135,7.0,17.0,30,0.00,,SCT120,0.11,VWS V14.01,2013-07-10 21:00:00,
2013-07-10 15:30:00,80.5,45.3,29.73,East,90,6.0,14.0,29,0.00,,SCT120,0.11,VWS V14.01,2013-07-10 21:30:00,
2013-07-10 16:00:00,79.0,44.1,29.73,East,90,7.0,14.0,29,0.00,,SCT120,0.11,VWS V14.01,2013-07-10 22:00:00,
2013-07-10 16:30:00,72.3,47.3,29.74,SE,135,7.0,17.0,41,0.00,,SCT120,0.11,VWS V14.01,2013-07-10 22:30:00,
2013-07-10 17:00:00,71.4,50.1,29.76,NE,45,4.0,16.0,47,0.00,,SCT120,0.11,VWS V14.01,2013-07-10 23:00:00,
2013-07-10 17:30:00,72.2,48.5,29.75,ENE,68,4.0,12.0,43,0.00,,SCT120,0.11,VWS V14.01,2013-07-10 23:30:00,
2013-07-10 18:00:00,70.9,50.2,29.74,SE,135,2.0,10.0,48,0.00,,SCT120,0.11,VWS V14.01,2013-07-11 00:00:00,
2013-07-10 18:30:00,70.2,51.8,29.76,WNW,292,2.0,8.0,52,0.00,,SCT120,0.11,VWS V14.01,2013-07-11 00:30:00,
2013-07-10 19:00:00,69.3,51.5,29.75,SSW,202,2.0,7.0,53,0.00,,SCT120,0.11,VWS V14.01,2013-07-11 01:00:00,
2013-07-10 19:30:00,68.9,51.6,29.74,East,90,2.0,6.0,54,0.00,,SCT120,0.11,VWS V14.01,2013-07-11 01:30:00,
2013-07-10 20:00:00,66.8,50.6,29.76,WNW,292,3.0,10.0,56,0.00,,SCT120,0.11,VWS V14.01,2013-07-11 02:00:00,
2013-07-10 20:30:00,66.2,49.6,29.76,SE,135,1.0,4.0,55,0.00,,SCT120,0.11,VWS V14.01,2013-07-11 02:30:00,
2013-07-10 21:00:00,65.8,50.6,29.76,SE,135,6.0,12.0,58,0.00,,SCT120,0.11,VWS V14.01,2013-07-11 03:00:00,
2013-07-10 21:30:00,66.7,49.5,29.76,SE,135,8.0,16.0,54,0.00,,SCT120,0.11,VWS V14.01,2013-07-11 03:30:00,
2013-07-10 22:00:00,65.5,49.4,29.78,SE,135,10.0,16.0,56,0.00,,SCT120,0.11,VWS V14.01,2013-07-11 04:00:00,
2013-07-10 22:30:00,65.1,48.5,29.80,SE,135,7.0,17.0,55,0.00,,SCT120,0.11,VWS V14.01,2013-07-11 04:30:00,
2013-07-10 23:00:00,65.4,48.3,29.82,SE,135,4.0,11.0,54,0.00,,SCT120,0.11,VWS V14.01,2013-07-11 05:00:00,
2013-07-10 23:30:00,63.7,48.2,29.82,SE,135,5.0,12.0,57,0.00,,SCT120,0.11,VWS V14.01,2013-07-11 05:30:00,